Regional Weather Roundup
Issued by NWS Goodland, KS

Home | Current Version | Previous Version | Text Only | Print | Product List | Glossary On
Versions: 1 2 3 4 5 6 7 8 9 10 11 12 13 14 15 16 17 18 19 20 21 22 23 24 25 26 27 28 29 30 31 32 33 34 35 36 37 38 39 40 41 42 43 44 45 46 47 48 49 50
000
ASUS43 KGLD 262308
RWRGLD

GOODLAND FORECAST AREA HOURLY WEATHER ROUNDUP
NATIONAL WEATHER SERVICE GOODLAND KS
500 PM MDT FRI MAY 26 2017

...OFFICIAL OBSERVATIONS...

CITY           SKY/WX    TMP DP  RH WIND       PRES   REMARKS
GOODLAND KS    SUNNY     73  52  47 SE15G23   29.86F
HILL CITY KS   SUNNY     79  52  38 SE8       29.85S
IMPERIAL NEB   CLOUDY    69  47  45 S10       29.87R
MCCOOK NEB     SUNNY     76  47  35 E10       29.85S
AKRON CO       TSTM      55  46  71 E17       29.86F
BURLINGTON CO  MOSUNNY   73  52  47 SE18G25   29.86F
LIMON CO       CLOUDY    72  46  39 S28G35    29.85F
$$

...UNOFFICIAL OBSERVATIONS...

CITY           SKY/WX    TMP DP  RH WIND       PRES   REMARKS
LENORA KS        N/A     74  32  21 MISG        N/A
NORTON KS      SUNNY     73  46  38 E8        29.84F
SHARON SPRINGS   N/A     76  54  45 SE13G22     N/A
TRENTON NEB      N/A     74  32  21 SE9         N/A
$$




USA.gov is the U.S. government's official web portal to all federal, state and local government web resources and services.